When you browse on this site, cookies collect data to enhance your experience and personalize the content and advertising you see.
Visit our Privacy Policy to learn more. By continuing to use the site, you agree to this use of cookies and data.
  • En España
  • Lista de países
  • Para 7 días
  • Temperatura del agua
  • El tiempo en el mapa
  • Informadores
  • user-avatar
    Iniciar sesión

    Tiempo cada hora Viana-du-Kashtelu

    Hoy, 28 Mayo, Jueves

    Tiempo Temperatura Precipitaciones Viento Presión Humedad
    00:00 +21°C° 0 mm 2 mps 760 mmHg 63%
    01:00 +21°C° 0 mm 2 mps 760 mmHg 63%
    02:00 +21°C° 0 mm 2 mps 760 mmHg 62%
    03:00 +21°C° 0 mm 2 mps 760 mmHg 63%
    04:00 +21°C° 0 mm 2 mps 760 mmHg 63%
    05:00 +21°C° 0 mm 2 mps 760 mmHg 64%
    06:00 +25°C° 0 mm 1 mps 760 mmHg 57%
    07:00 +28°C° 0 mm 1 mps 760 mmHg 51%
    08:00 +30°C° 0 mm 1 mps 760 mmHg 44%
    09:00 +31°C° 0 mm 1 mps 760 mmHg 41%
    10:00 +32°C° 0 mm 2 mps 760 mmHg 37%
    11:00 +34°C° 0 mm 2 mps 760 mmHg 34%
    12:00 +33°C° 0 mm 3 mps 760 mmHg 35%
    13:00 +31°C° 0 mm 3 mps 759 mmHg 36%
    14:00 +30°C° 0 mm 3 mps 759 mmHg 38%
    15:00 +30°C° 0 mm 4 mps 759 mmHg 41%
    16:00 +29°C° 0 mm 4 mps 759 mmHg 45%
    17:00 +28°C° 0 mm 4 mps 758 mmHg 48%
    18:00 +27°C° 0 mm 4 mps 759 mmHg 53%
    19:00 +25°C° 0 mm 4 mps 759 mmHg 57%
    20:00 +23°C° 0 mm 4 mps 759 mmHg 62%
    21:00 +23°C° 0 mm 4 mps 759 mmHg 62%
    22:00 +24°C° 0 mm 3 mps 759 mmHg 63%
    23:00 +24°C° 0 mm 3 mps 758 mmHg 63%

    Mañana, 29 Mayo, Viernes

    Tiempo Temperatura Precipitaciones Viento Presión Humedad
    00:00 +22°C° 0 mm 3 mps 758 mmHg 64%
    01:00 +22°C° 0 mm 3 mps 758 mmHg 65%
    02:00 +23°C° 0 mm 2 mps 758 mmHg 66%
    03:00 +23°C° 0 mm 2 mps 758 mmHg 67%
    04:00 +21°C° 0 mm 2 mps 757 mmHg 68%
    05:00 +22°C° 0 mm 1 mps 757 mmHg 69%
    06:00 +25°C° 0 mm 1 mps 757 mmHg 63%
    07:00 +27°C° 0 mm 1 mps 757 mmHg 57%
    08:00 +29°C° 0 mm 1 mps 757 mmHg 51%
    09:00 +30°C° 0 mm 1 mps 757 mmHg 49%
    10:00 +31°C° 0 mm 2 mps 757 mmHg 46%
    11:00 +31°C° 0 mm 2 mps 756 mmHg 43%
    12:00 +31°C° 0 mm 3 mps 756 mmHg 45%
    13:00 +30°C° 0 mm 3 mps 756 mmHg 47%
    14:00 +30°C° 0 mm 4 mps 755 mmHg 48%
    15:00 +29°C° 0 mm 4 mps 755 mmHg 51%
    16:00 +28°C° 0 mm 4 mps 755 mmHg 53%
    17:00 +27°C° 0 mm 4 mps 755 mmHg 55%
    18:00 +26°C° 0 mm 4 mps 755 mmHg 60%
    19:00 +23°C° 0 mm 4 mps 755 mmHg 64%
    20:00 +22°C° 0 mm 4 mps 755 mmHg 68%
    21:00 +22°C° 0 mm 3 mps 755 mmHg 67%
    22:00 +22°C° 0 mm 3 mps 755 mmHg 67%
    23:00 +22°C° 0 mm 3 mps 755 mmHg 66%

    Pasado mañana, 30 Mayo, Sábado

    Tiempo Temperatura Precipitaciones Viento Presión Humedad
    00:00 +21°C° 0 mm 3 mps 755 mmHg 66%
    01:00 +21°C° 0 mm 3 mps 755 mmHg 66%
    02:00 +21°C° 0 mm 3 mps 755 mmHg 66%
    03:00 +21°C° 0 mm 2 mps 755 mmHg 65%
    04:00 +21°C° 0 mm 2 mps 754 mmHg 65%
    05:00 +21°C° 0 mm 2 mps 754 mmHg 65%
    06:00 +24°C° 0 mm 1 mps 754 mmHg 58%
    07:00 +27°C° 0 mm 1 mps 754 mmHg 52%
    08:00 +29°C° 0 mm 1 mps 754 mmHg 46%
    09:00 +30°C° 0 mm 1 mps 754 mmHg 44%
    10:00 +32°C° 0 mm 2 mps 754 mmHg 41%
    11:00 +34°C° 0 mm 2 mps 754 mmHg 39%
    12:00 +32°C° 0 mm 2 mps 754 mmHg 40%
    13:00 +31°C° 0 mm 3 mps 754 mmHg 41%
    14:00 +31°C° 0 mm 3 mps 753 mmHg 42%
    15:00 +29°C° 0.3 mm 3 mps 753 mmHg 50%
    16:00 +27°C° 0.3 mm 3 mps 753 mmHg 58%
    17:00 +25°C° 0.3 mm 3 mps 753 mmHg 66%
    18:00 +24°C° 0 mm 3 mps 753 mmHg 70%
    19:00 +21°C° 0 mm 2 mps 754 mmHg 74%
    20:00 +21°C° 0 mm 1 mps 754 mmHg 78%
    21:00 +21°C° 0 mm 1 mps 754 mmHg 76%
    22:00 +21°C° 0 mm 1 mps 754 mmHg 75%
    23:00 +21°C° 0 mm 1 mps 753 mmHg 73%

    31 Mayo, Domingo

    Tiempo Temperatura Precipitaciones Viento Presión Humedad
    00:00 +21°C° 0 mm 1 mps 753 mmHg 73%
    01:00 +21°C° 0 mm 1 mps 753 mmHg 72%
    02:00 +21°C° 0 mm 1 mps 753 mmHg 71%
    03:00 +21°C° 0 mm 1 mps 753 mmHg 70%
    04:00 +21°C° 0 mm 1 mps 753 mmHg 69%
    05:00 +22°C° 0 mm 1 mps 753 mmHg 68%
    06:00 +24°C° 0.2 mm 1 mps 753 mmHg 65%
    07:00 +23°C° 0.2 mm 0 mps 754 mmHg 62%
    08:00 +25°C° 0.2 mm 0 mps 754 mmHg 59%
    09:00 +26°C° 0.1 mm 0 mps 754 mmHg 56%
    10:00 +29°C° 0.1 mm 1 mps 754 mmHg 53%
    11:00 +29°C° 0.1 mm 1 mps 754 mmHg 49%
    12:00 +30°C° 0.1 mm 1 mps 753 mmHg 48%
    13:00 +30°C° 0.1 mm 2 mps 753 mmHg 47%
    14:00 +30°C° 0.1 mm 2 mps 753 mmHg 46%
    15:00 +29°C° 0 mm 3 mps 753 mmHg 49%
    16:00 +28°C° 0 mm 3 mps 753 mmHg 53%
    17:00 +27°C° 0 mm 4 mps 753 mmHg 57%
    18:00 +26°C° 0.7 mm 3 mps 753 mmHg 66%
    19:00 +24°C° 0.7 mm 3 mps 754 mmHg 76%
    20:00 +21°C° 0.7 mm 2 mps 754 mmHg 85%
    21:00 +21°C° 0 mm 2 mps 754 mmHg 85%
    22:00 +21°C° 0 mm 1 mps 754 mmHg 85%
    23:00 +21°C° 0 mm 1 mps 754 mmHg 84%

    1 Junio, Lunes

    Tiempo Temperatura Precipitaciones Viento Presión Humedad
    00:00 +21°C° 0 mm 1 mps 753 mmHg 85%
    01:00 +20°C° 0 mm 1 mps 753 mmHg 86%
    02:00 +19°C° 0 mm 2 mps 753 mmHg 86%
    03:00 +19°C° 0 mm 2 mps 753 mmHg 85%
    04:00 +19°C° 0 mm 2 mps 753 mmHg 84%
    05:00 +19°C° 0 mm 2 mps 753 mmHg 83%
    06:00 +23°C° 0 mm 2 mps 753 mmHg 74%
    07:00 +25°C° 0 mm 2 mps 753 mmHg 65%
    08:00 +27°C° 0 mm 1 mps 753 mmHg 56%
    09:00 +28°C° 0.2 mm 2 mps 753 mmHg 55%
    10:00 +28°C° 0.2 mm 3 mps 753 mmHg 54%
    11:00 +28°C° 0.2 mm 3 mps 753 mmHg 53%
    12:00 +27°C° 0.2 mm 3 mps 753 mmHg 56%
    13:00 +27°C° 0.2 mm 3 mps 753 mmHg 59%
    14:00 +26°C° 0.2 mm 3 mps 752 mmHg 62%
    15:00 +25°C° 0.1 mm 3 mps 752 mmHg 64%
    16:00 +25°C° 0.1 mm 3 mps 752 mmHg 66%
    17:00 +25°C° 0.1 mm 4 mps 753 mmHg 68%
    18:00 +22°C° 0.2 mm 3 mps 753 mmHg 73%
    19:00 +21°C° 0.2 mm 2 mps 753 mmHg 79%
    20:00 +20°C° 0.2 mm 1 mps 753 mmHg 85%
    21:00 +20°C° 0.1 mm 1 mps 753 mmHg 86%
    22:00 +19°C° 0.1 mm 1 mps 753 mmHg 87%
    23:00 +17°C° 0.1 mm 2 mps 753 mmHg 88%

    2 Junio, Martes

    Tiempo Temperatura Precipitaciones Viento Presión Humedad
    00:00 +18°C° 0 mm 1 mps 753 mmHg 87%
    01:00 +18°C° 0 mm 1 mps 753 mmHg 87%
    02:00 +18°C° 0 mm 1 mps 753 mmHg 86%
    03:00 +18°C° 0 mm 1 mps 753 mmHg 86%
    04:00 +19°C° 0 mm 1 mps 753 mmHg 86%
    05:00 +19°C° 0 mm 1 mps 753 mmHg 86%
    06:00 +20°C° 0 mm 2 mps 753 mmHg 80%
    07:00 +21°C° 0 mm 2 mps 753 mmHg 75%
    08:00 +24°C° 0 mm 2 mps 753 mmHg 70%
    09:00 +24°C° 0.2 mm 2 mps 753 mmHg 70%
    10:00 +24°C° 0.2 mm 2 mps 753 mmHg 71%
    11:00 +24°C° 0.2 mm 3 mps 753 mmHg 71%
    12:00 +25°C° 0.2 mm 2 mps 753 mmHg 69%
    13:00 +25°C° 0.2 mm 2 mps 753 mmHg 66%
    14:00 +25°C° 0.2 mm 2 mps 753 mmHg 64%
    15:00 +25°C° 0.1 mm 3 mps 752 mmHg 67%
    16:00 +24°C° 0.1 mm 3 mps 752 mmHg 69%
    17:00 +22°C° 0.1 mm 4 mps 752 mmHg 72%
    18:00 +21°C° 0 mm 4 mps 752 mmHg 79%
    19:00 +19°C° 0 mm 4 mps 753 mmHg 85%
    20:00 +18°C° 0 mm 4 mps 753 mmHg 91%
    21:00 +16°C° 0 mm 5 mps 753 mmHg 92%
    22:00 +16°C° 0 mm 5 mps 753 mmHg 93%
    23:00 +16°C° 0 mm 5 mps 753 mmHg 93%
    Mostrar más